Location: *
(44.6333°S, 168.8000°W)
Time: 01:44:37
(UTC+00:00)

Daily predictions for brighter satellites

Satellite Brightness Start Highest point End
(mag) Time Altitude Azimuth Time Altitude Azimuth Time Altitude Azimuth
NOAA 11 4.4 04:06:55 10° SSE 04:12:22 54° E 04:17:44 10° N
Cosmos 2369 4.2 04:07:41 10° SSW 04:13:05 40° SE 04:18:25 10° NE
RESURS DK-1 3.5 04:11:03 10° S 04:14:30 24° SE 04:17:55 10° ENE
USA 307 3.4 04:11:02 10° SW 04:15:05 42° SSE 04:19:07 10° E
Cosmos 1697 Rocket 2.7 04:09:54 10° SSW 04:15:36 67° ESE 04:21:15 10° NE
USA 215 3.7 04:10:05 10° E 04:16:16 44° SSE 04:22:28 10° SW
H-2A R/B 3.6 04:17:19 10° ESE 04:19:54 14° E 04:22:29 10° ENE
Lacrosse 5 3.4 04:19:23 10° SW 04:23:18 21° S 04:27:16 10° ESE
CZ-4B R/B 4.0 04:20:07 10° S 04:24:56 59° WSW 04:29:38 10° NNW
ERBS 3.9 04:26:55 10° SSW 04:29:05 17° SSE 04:31:00 11° ESE
Cosmos 2360 4.2 04:24:38 10° SSW 04:30:27 83° ESE 04:36:10 10° NNE
CZ-2C R/B 3.5 04:28:01 10° NNW 04:30:30 16° N 04:32:54 10° NE
Cosmos 1340 Rocket 2.8 04:28:15 10° N 04:32:17 83° E 04:36:26 10° SSE
BREEZE M DEB (TANK) 2.6 04:36:34 10° NW 04:38:30 34° NE 04:40:10 14° E
Meteor 1-31 Rocket 2.8 04:35:42 10° SSE 04:39:41 64° E 04:43:36 10° N
Cosmos 2151 3.2 04:35:55 10° N 04:40:07 51° E 04:44:22 10° SSE
USA 308 2.9 04:41:53 10° SW 04:46:07 62° SSE 04:50:17 10° ENE
SL-16 R/B 3.4 04:43:48 10° S 04:48:06 21° SE 04:51:25 13° E
CBERS 1 LM4 rocket 4.4 04:46:42 10° SSE 04:51:33 66° ENE 04:56:28 10° N
COSMOS 2406 3.2 04:46:55 10° NNW 04:52:38 90° NNW 04:58:24 10° SSE
COSMO-SKYMED 1 3.6 04:48:26 10° N 04:52:43 51° W 04:57:03 10° SSW
Landsat 5 3.8 04:50:36 10° NE 04:54:53 48° ESE 04:59:06 10° S
Cosmos 2173 Rocket 4.0 04:53:44 10° S 05:00:11 89° E 05:06:28 10° N
Cosmos 1833 Rocket 3.5 04:55:04 10° NW 05:00:35 51° WSW 05:06:09 10° SSE
Cosmos 1782 2.7 04:57:12 10° S 05:01:14 82° E 05:05:12 10° N
Cosmos 2016 Rocket 4.0 04:56:41 10° S 05:02:56 63° E 05:09:11 10° NNE
Cosmos 1354 Rocket 4.4 04:59:37 10° S 05:04:39 42° ESE 05:09:38 10° NE
SeaSat 1 4.5 05:01:51 10° S 05:05:42 23° SW 05:09:31 10° W
Cosmos 1992 Rocket 4.0 05:01:10 10° NNW 05:06:25 88° ENE 05:11:44 10° SSE
USA 305 2.9 05:03:11 10° SW 05:07:26 83° NW 05:11:38 10° NE
Cosmos 1486 Rocket 4.0 05:02:48 10° SSW 05:08:14 87° ESE 05:13:36 10° NNE
Cosmos 2233 Rocket 4.3 05:03:05 10° S 05:09:04 42° ESE 05:15:02 10° NE
Cosmos 2360 Rocket 3.7 05:06:05 10° S 05:09:28 16° SE 05:09:28 16° SE
Cosmos 1933 4.0 05:05:49 10° SSW 05:09:52 60° W 05:13:53 10° N
SMAP 3.5 05:06:12 11° SSE 05:10:35 41° E 05:15:00 10° NNE
Cosmos 1939 Rocket 2.7 05:07:01 10° SSE 05:10:58 84° ENE 05:14:52 10° NNW
Cosmos 2278 3.7 05:05:20 10° SSW 05:11:00 58° ESE 05:16:34 10° NE
Lacrosse 5 rocket 2.9 05:09:07 10° SSW 05:11:55 18° SSE 05:12:32 17° SSE
Cosmos 1864 Rocket 4.4 05:10:34 10° S 05:16:48 75° E 05:22:58 10° NNE
Cosmos 1151 Rocket 3.5 05:13:41 10° S 05:17:52 39° ESE 05:21:59 10° NE
Meteor PRIRODA 3.6 05:16:58 18° SSE 05:19:35 59° E 05:23:15 10° N
Cosmos 1802 Rocket 4.2 05:15:57 10° S 05:22:27 81° W 05:28:55 10° N
BREEZE-M DEB (TANK) 3.8 05:15:45 10° WSW 05:22:41 41° NW 05:25:37 10° NNE
SL-08 R/B 4.4 05:16:28 10° S 05:22:46 75° E 05:28:53 10° NNE
Meteor 2-3 Rocket 4.5 05:17:37 10° NNW 05:23:08 55° WSW 05:28:46 10° S
SL-8 R/B 4.3 05:18:46 10° NW 05:23:16 41° NE 05:25:03 29° E
Cosmos 1459 Rocket 4.5 05:17:24 10° SSW 05:23:34 64° W 05:29:44 10° N
USA 281 3.4 05:21:17 15° SE 05:26:44 49° ENE 05:33:07 10° N
Orbus 7S? 4.1 05:25:39 10° SW 05:28:30 26° S 05:28:30 26° S
ATLAS 2AS CENTAUR R/B 4.4 05:22:56 10° SW 05:29:22 37° WNW 05:36:08 10° N
CZ-2D R/B 3.3 05:30:12 38° SE 05:31:20 54° E 05:35:07 10° N
ARGOS 3.7 05:30:54 30° ESE 05:32:32 36° E 05:37:29 10° NNE
Cosmos 1812 3.4 05:29:22 10° SSW 05:33:12 56° W 05:36:58 10° N
CZ-4B R/B 2.6 05:34:48 30° SSE 05:36:34 78° ENE 05:40:29 10° N
Cosmos 1503 Rocket 4.0 05:32:53 10° SSW 05:38:08 87° WNW 05:43:21 10° NNE
SJ 16-02 1.4 05:33:53 10° S 05:38:17 53° ESE 05:39:38 38° ENE
Cosmos 1980 Rocket 3.0 05:36:17 10° SW 05:41:45 52° WNW 05:47:09 10° N
Meteor 2-6 Rocket 4.1 05:36:16 10° S 05:41:57 86° E 05:47:25 10° N
CZ-4C R/B 2.8 05:40:36 10° N 05:43:51 82° W 05:47:14 10° SSW
H-2A R/B 4.4 05:52:26 13° S 05:52:26 13° S 05:53:00 10° S
USA 306 4.0 05:45:26 10° WSW 05:49:25 41° NW 05:52:10 18° NNE
DELTA 2 R/B (1) 4.1 05:44:29 10° WNW 05:49:52 48° N 05:51:36 36° NE
Cosmos 2322 Rocket 2.6 05:46:07 10° SSW 05:51:23 41° SE 05:51:23 41° SE
RESURS DK-1 3.9 05:48:42 10° SW 05:52:36 37° WNW 05:56:26 10° N
USA 307 3.9 05:50:42 10° WSW 05:54:44 43° NW 05:56:49 24° NNE
Cosmos 1900 4.2 05:49:58 10° SSW 05:54:48 59° SE 05:54:57 59° ESE
Cosmos 2082 Rocket 3.2 05:49:34 10° NW 05:54:57 44° WSW 05:59:35 14° SSE
USA 215 3.3 05:53:47 18° NE 05:59:00 78° NW 06:05:39 10° SW
H-2A R/B 2.1 05:55:24 13° S 05:59:54 72° WSW 06:04:49 10° NNW
Cosmos 2333 Rocket 4.0 05:58:01 10° S 05:59:59 17° SSE 05:59:59 17° SSE
Cosmos 1766 Rocket 3.4 06:00:19 10° N 06:04:41 89° WSW 06:04:50 83° S
Cosmos 1862 4.4 06:00:55 10° NNW 06:04:44 44° WSW 06:07:13 20° SSW
ERBS 4.2 06:01:39 10° SW 06:03:04 24° SW 06:03:04 24° SW
IRIDIUM 104 4.2 05:59:51 10° N 06:05:06 82° E 06:09:31 15° S
Okean 3 Rocket 3.7 06:01:28 10° N 06:05:27 65° NNE 06:05:27 65° NNE
Lacrosse 5 2.5 06:02:29 10° SW 06:06:47 42° S 06:06:47 42° S
CZ-2C R/B 3.2 06:06:21 10° NW 06:08:37 18° NNW 06:08:37 18° NNW
CORIOLIS 4.4 06:05:10 13° S 06:10:09 71° WSW 06:15:36 10° NNW
Cosmos 2219 Rocket 4.3 06:07:46 10° S 06:08:48 14° S 06:08:48 14° S
IRIDIUM 114 4.3 06:08:59 10° N 06:14:14 83° W 06:18:41 15° S
Cosmos 2084 4.3 06:11:15 10° NW 06:15:59 53° SW 06:16:41 49° SSW
Magion-5 4.4 06:08:40 10° NNW 06:16:49 51° NE 06:16:49 51° NE
Radarsat Rocket 4.5 06:11:40 11° SSE 06:18:57 82° ENE 06:27:13 10° NNW
SL-16 R/B 2.3 06:27:07 10° SSW 06:32:51 75° WNW 06:33:22 69° NNW
Cosmos 1932 4.4 06:28:40 10° NNW 06:34:46 75° NNE 06:34:46 75° NNE
GEOS 3 Rocket 4.4 06:38:59 42° NNW 06:38:59 42° NNW 06:42:24 10° NNW
Lacrosse 5 rocket 4.2 06:47:51 10° SW 06:48:05 11° SW 06:48:05 11° SW
Cosmos 2360 Rocket 3.7 06:48:46 10° SSW 06:51:15 27° SSW 06:51:15 27° SSW
ATLAS 5 CENTAUR R/B 4.2 06:56:43 10° NNW 06:59:38 25° N 06:59:38 25° N
USA 281 4.4 07:08:10 26° S 07:11:03 38° SW 07:17:02 10° WNW
SJ 16-02 4.1 07:13:43 10° WSW 07:16:21 16° W 07:16:45 15° WNW
Cosmos 2322 Rocket 4.2 07:30:25 10° SW 07:33:15 25° WSW 07:33:15 25° WSW
